Regional Weather Roundup
Issued by NWS Mobile, AL

Home | Current Version | Previous Version | Text Only | Print | Product List | Glossary On
Versions: 1 2 3 4 5 6 7 8 9 10 11 12 13 14 15 16 17 18 19 20 21 22 23 24 25 26 27 28 29 30 31 32 33 34 35 36 37 38 39 40 41 42 43 44 45 46 47 48 49 50
000
ASUS44 KMOB 282310
RWRMOB
REGIONAL WEATHER ROUNDUP
NATIONAL WEATHER SERVICE MOBILE AL
500 PM CST WED JAN 28 2015

NOTE: "FAIR" INDICATES FEW OR NO CLOUDS BELOW 12,000 FEET WITH NO
      SIGNIFICANT WEATHER AND/OR OBSTRUCTIONS TO VISIBILITY.

  * THESE STATIONS ARE PART OF THE UNIVERSITY OF SOUTH ALABAMA
    MESONET AND ARE NOT UNDER NWS OR FAA QUALITY CONTROL.

ALZ061>064-290000-
COASTAL ALABAMA

CITY           SKY/WX    TMP DP  RH WIND       PRES   REMARKS
MOBILE REG APT PTCLDY    63  30  28 CALM      30.23S
BROOKLEY FIELD CLEAR     65  25  22 N5        30.25R
USA CAMPUS*    NOT AVBL
DOG RIVER*     NOT AVBL


CITY           SKY/WX    TMP DP  RH WIND       PRES   REMARKS
MOUNT VERNON*  NOT AVBL
SARALAND*      NOT AVBL
BAY MINETTE*   NOT AVBL
LOXLEY*        NOT AVBL
ROBERTSDALE*   NOT AVBL
FAIRHOPE*        N/A     61  32  33 NW3       30.22R
ELBERTA*         N/A     57  43  58 S5        30.23R
FOLEY*         NOT AVBL
GRAND BAY*     NOT AVBL
DAUPHIN ISLND* NOT AVBL
BON SCOUR NWR* NOT AVBL
GULF SHORES    CLEAR     56  43  62 S3        30.24R

$$

ALZ051>060-290000-
INTERIOR SOUTHWEST AND SOUTH CENTRAL ALABAMA

CITY           SKY/WX    TMP DP  RH WIND       PRES   REMARKS
GREENVILLE     CLEAR     58  27  30 E3        30.22S
EVERGREEN      CLEAR     60  29  30 E3        30.23S
CASTLEBERRY*   NOT AVBL
ATMORE*          N/A    N/A N/A N/A NW5       30.24R
DIXIE*           N/A     55  34  44 CALM      30.21R
ANDALUSIA/OPP  CLEAR     62  31  31 CALM      30.23S
ANDALUSIA*       N/A    N/A N/A N/A N2        30.22S
FLORALA APT    CLEAR     56  32  40 CALM      30.25S
FLORALA*         N/A    N/A N/A N/A CALM      30.21R

$$

FLZ001>006-290000-
WESTERN FLORIDA PANHANDLE

CITY           SKY/WX    TMP DP  RH WIND       PRES   REMARKS
PENSACOLA      CLEAR     55  39  54 S9        30.23S
NAS PENSACOLA  CLEAR     55  40  56 SW6       30.23S
MILTON         PTCLDY    57  37  47 E3        30.23F SMOKE
WHTNG S FIELD  PTCLDY    61  29  29 NE6       30.23F SMOKE


CITY           SKY/WX    TMP DP  RH WIND       PRES   REMARKS
WALNUT HILL*   NOT AVBL
JAY*           NOT AVBL
DUKE FIELD     PTCLDY    59  30  33 CALM      30.23R
CRESTVIEW      CLEAR     58  32  37 E3        30.25R
VALPARAISO     CLEAR     54  40  58 S5        30.24R
DESTIN         CLEAR     56  39  53 VRB3      30.24R

$$

MSZ076-079-290000-
INTERIOR SOUTHEAST MISSISSIPPI

CITY           SKY/WX    TMP DP  RH WIND       PRES   REMARKS
LEAKESVILLE*   NOT AVBL
AGRICOLA*      NOT AVBL

$$

MARINE OBSERVATIONS

STATION/POSITION TIME  TEMP    WIND        PRES    WAVE
                       AIR SEA DIR/SP/G            HT/PER
                 (UTC) (F)     (DEG/KT/KT) (MB)    (FT/S)
PASCAGOULA       2300   56     190/  5/  6 1023.8F
PETIT BOIS ISLND 2300   57     200/  5/  6 1024.3F
GRAND BAY        2200   56     200/  5     1024.0F
KATRINA CUT      2200   56     200/  8     1024.7R
CEDAR POINT      2200   58     230/  4     1023.7F
E DAUPHIN ISLAND 2200   57     160/  4/  4 1023.4F
MIDDLE BAY LIGHT 2200   64     330/  2     1023.4R
USCG MOBILE BAY  2300   64 53   30/  3/  4 1022.8R
STATE DOCKS      2300   63 50              1023.4R
MEAHER PARK      2200   64     300/  5     1023.4S
WEEKS BAY        2200   63                   N/A
FORT MORGAN      2300   57     200/  5/  6 1023.5R
12 S ORANGE BCH  2300   58 63  160/  2/  4 1023.5F   1/ 4
PENSACOLA BAY    2300   58 56  180/  4/  6 1024.1R
64 S DAUPHIN ISL 2221   60 69   70/ 10/ 10 1024.2R   2/ 5

$$

SELECTED LOCATIONS ACROSS THE REGION

CITY           SKY/WX    TMP DP  RH WIND       PRES   REMARKS
NEW ORLEANS    PTCLDY    65  43  44 SE9       30.23R
GULFPORT       CLEAR     56  43  61 S5        30.24R
PASCAGOULA AP  CLEAR     56  42  59 SW3       30.24R
PASCAGOULA*    NOT AVBL
HATTIESBURG    CLEAR     65  34  31 SE3       30.23R
LAUREL         CLEAR     64  36  34 S5        30.24R
MERIDIAN       CLEAR     62  25  24 SE5       30.22R
JACKSON        PTCLDY    65  35  33 SE8       30.18S
MONTGOMERY     CLEAR     55  30  38 SE3       30.24F
TROY           CLEAR     58  27  30 CALM      30.24S
KINSTON*       NOT AVBL
GENEVA*        NOT AVBL
ASHFORD*         N/A    N/A N/A N/A N2        30.22S
DOTHAN         CLEAR     54  31  41 E5        30.27S
PANAMA CITY    CLEAR     57  35  43 N5        30.23R

$$



USA.gov is the U.S. government's official web portal to all federal, state and local government web resources and services.